Regional Weather Roundup
Issued by NWS

Home | Current Version | Previous Version | Text Only | Print | Product List | Glossary Off
Versions: 1 2 3 4 5 6 7 8 9 10 11 12 13 14 15 16 17 18 19 20 21 22 23 24 25 26 27 28 29 30 31 32 33 34 35 36 37 38 39 40 41 42 43 44 45 46 47 48 49 50

000
ASUS43 KMPX 240701
RWRMN
WEATHER ROUNDUP FOR MINNESOTA
NATIONAL WEATHER SERVICE TWIN CITIES/CHANHASSEN MN
100 AM CST TUE JAN 24 2017


NOTE: "FAIR" INDICATES FEW OR NO CLOUDS BELOW 12,000 FEET WITH NO
SIGNIFICANT WEATHER AND/OR OBSTRUCTIONS TO VISIBILITY. N/A MEANS
CURRENT SKY AND/OR WEATHER CONDITIONS ARE NOT AVAILABLE.

MNZ060>063-068>070-240800-
   Twin Cities Metro

CITY           SKY/WX    TMP DP  RH WIND       PRES   REMARKS
TWIN CITIES    CLOUDY    32  27  81 NW7       29.86S WCI  26
ST PAUL        CLOUDY    32  30  92 NW5       29.87S WCI  27
CRYSTAL        CLOUDY    32  25  75 NW3       29.85R
BLAINE         CLOUDY    34  30  86 CALM      29.85S
LAKEVILLE      CLOUDY    30  28  93 W3        29.85S
EDEN PRAIRIE   CLOUDY    32  27  81 W3        29.85R
SOUTH ST PAUL  CLOUDY    33  30  89 W3        29.85S
LAKE ELMO      CLOUDY    32  32 100 CALM      29.86R FOG
$$
MNZ001>005-007-008-013>017-022>024-027-028-240800-
   Northwest Minnesota

CITY           SKY/WX    TMP DP  RH WIND       PRES   REMARKS
BEMIDJI        CLOUDY    27  22  84 W7        29.82S WCI  19
HALLOCK        CLOUDY    27  25  93 SW9       29.81S WCI  17
ROSEAU         CLOUDY    27  21  80 SW10      29.81R WCI  17
WARROAD        CLOUDY    27  21  80 W6        29.81R WCI  20
THIEF RVR FALL CLOUDY    24  21  88 W13       29.84R WCI  12
CROOKSTON      CLOUDY    27  23  86 W13       29.86S WCI  16
FOSSTON        CLOUDY    27  23  86 W7        29.84S WCI  19
DETROIT LAKES  CLOUDY    30  27  86 W5        29.84S WCI  25
MOORHEAD       CLOUDY    30  25  80 W7        29.87S WCI  23
PARK RAPIDS    CLOUDY    30  22  72 W9        29.82R WCI  22
MAHNOMEN       CLOUDY    28  24  84 W10       29.84S WCI  19
$$
MNZ006-009>011-018-025>026-240800-
   North Central Minnesota

CITY           SKY/WX    TMP DP  RH WIND       PRES   REMARKS
BAUDETTE       CLOUDY    28  22  78 SW6       29.80R WCI  22
FLAG ISLAND    CLOUDY    27  23  86 SW9       29.79S WCI  17
INTL FALLS     CLOUDY    29  24  82 CALM      29.80S
WASKISH        CLOUDY    28  25  86 W8        29.82S WCI  20
BIG FORK       CLOUDY    30  27  86 CALM      29.81S
LONGVILLE      CLOUDY    30  25  80 W7        29.82R WCI  23
GRAND RAPIDS   CLOUDY    30  26  85 CALM      29.83R
CRANE LAKE     CLOUDY    30  28  93 CALM      29.83S
ORR            CLOUDY    28  27  93 CALM      29.78S
COOK           CLOUDY    30  27  86 CALM      29.81S
WALKER         CLOUDY    29  23  78 W8        29.82R WCI  21
$$
MNZ012-019>021-037-240800-
   Northeast Minnesota

CITY           SKY/WX    TMP DP  RH WIND       PRES   REMARKS
DULUTH         FLURRIES  32  30  92 NW6       29.80R WCI  26
ELY            CLOUDY    30  28  93 CALM      29.79F
HIBBING        CLOUDY    29  27  92 CALM      29.80R
EVELETH        CLOUDY    32  28  85 CALM      29.81S
DULUTH HARBOR  CLOUDY    34  32  93 SW6       29.84R WCI  29
TWO HARBORS    MOCLDY    36  30  80 CALM      29.79R
SILVER BAY     FLURRIES  34  34 100 CALM      29.78S
GRAND MARAIS     N/A     35  34  96 CALM      29.80F
G MARAIS ARPRT CLOUDY    30  28  93 CALM      29.77S
$$
MNZ029>031-032-039>041-046>048-054>057-064-240800-
   West Central Minnesota

CITY           SKY/WX    TMP DP  RH WIND       PRES   REMARKS
FERGUS FALLS   CLOUDY    30  28  93 N3        29.89S
WHEATON        CLOUDY    30  27  86 CALM      29.88S
MORRIS         CLOUDY    30  27  86 CALM      29.84F
ALEXANDRIA     CLOUDY    30  25  81 CALM      29.84S
ELBOW LAKE     CLOUDY    30  28  93 NW3       29.85S FOG
WADENA         CLOUDY    28  25  86 W3        29.83S
GLENWOOD       CLOUDY    30  25  80 CALM      29.84S
APPLETON       CLOUDY    32  28  86 CALM      29.85S
ORTONVILLE     CLOUDY    30  27  86 CALM      29.84F
MADISON        CLOUDY    34  30  86 CALM      29.85S
WILLMAR        CLOUDY    32  28  86 CALM      29.86S
$$
MNZ033>034-036-042>043-049>051-058-059-240800-
   Central Minnesota

CITY           SKY/WX    TMP DP  RH WIND       PRES   REMARKS
ST CLOUD       CLOUDY    31  26  82 CALM      29.85R
SAUK CENTRE    CLOUDY    29  26  87 CALM      29.85S
PAYNESVILLE    CLOUDY    31  30  99 CALM      29.85F
AITKIN         CLOUDY    34  25  69 CALM      29.82R
PINE RIVER     CLOUDY    30  25  80 NW3       29.87R
BRAINERD       CLOUDY    30  25  81 W3        29.84R
STAPLES        CLOUDY    28  27  93 CALM      29.84R
LONG PRAIRIE   CLOUDY    30  25  80 CALM      29.85S
LITTLE FALLS   CLOUDY    32  27  80 CALM      29.86R
LITCHFIELD     CLOUDY    32  28  86 CALM      29.85F
BUFFALO        CLOUDY    32  26  79 W3        29.87R
MAPLE LAKE     CLOUDY    32  28  86 CALM      29.86S
HUTCHINSON     CLOUDY    32  29  88 CALM      29.86S
$$
MNZ037-044-045-052-053-240800-
   East Central Minnesota

CITY           SKY/WX    TMP DP  RH WIND       PRES   REMARKS
PRINCETON      CLOUDY    34  27  75 CALM      29.85S
MORA           CLOUDY    32  28  86 W3        29.86R
CAMBRIDGE      CLOUDY    34  30  86 CALM      29.83S
RUSH CITY      CLOUDY    32  28  86 CALM      29.85R
MOOSE LAKE     CLOUDY    32  30  93 CALM      29.81S
HINCKLEY       CLOUDY    32  32 100 CALM      29.83S
CLOQUET        CLOUDY    30  30 100 CALM      29.81S
MCGREGOR       CLOUDY    32  28  86 CALM      29.84R
$$
MNZ071>073-080-081-089-090-097-098-240800-
   Southwest Minnesota

CITY           SKY/WX    TMP DP  RH WIND       PRES   REMARKS
MONTEVIDEO     CLOUDY    30  30 100 CALM      29.86S
GRANITE FALLS  CLOUDY    33  29  87 CALM      29.86F
CANBY          CLOUDY    32  30  92 CALM      29.84F
MARSHALL       CLOUDY   N/A N/A N/A SE5       29.84F
REDWOOD FALLS  CLOUDY    32  27  81 CALM      29.85S
OLIVIA         CLOUDY    32  28  86 CALM      29.86R
PIPESTONE      CLOUDY    30  30 100 S5        29.80S FOG     WCI  25
WINDOM         CLOUDY    30  28  93 CALM      29.83F
WORTHINGTON    CLOUDY    31  29  92 SE3       29.82S
JACKSON        CLOUDY    30  28  93 S3        29.83S
TRACY          CLOUDY    32  29  90 CALM      29.84S
SLAYTON        CLOUDY    29  28  96 S5        29.82F WCI  24
$$
MNZ065>067-074>077-082>085-091>093-240800-
   South Central Minnesota

CITY           SKY/WX    TMP DP  RH WIND       PRES   REMARKS
MANKATO        CLOUDY    31  30  96 CALM      29.86S
NEW ULM        CLOUDY    30  27  86 CALM      29.85F
ST JAMES       CLOUDY    30  28  93 CALM      29.86F
FAIRMONT       CLOUDY    31  29  92 CALM      29.85F
GLENCOE        CLOUDY    32  30  91 W5        29.85S WCI  28
OWATONNA       CLOUDY    30  27  86 CALM      29.85S
WASECA         CLOUDY    32  28  86 CALM      29.87R
ALBERT LEA     CLOUDY    30  28  93 NW3       29.84S
$$
MNZ078>079-086>088-094>096-240800-
   Southeast Minnesota

CITY           SKY/WX    TMP DP  RH WIND       PRES   REMARKS
ROCHESTER      CLOUDY    30  27  88 CALM      29.84F
RED WING       CLOUDY    32  28  86 CALM      29.85S
STANTON        CLOUDY    33  30  88 CALM      29.84S
DODGE CENTER   CLOUDY    30  28  93 MISG      29.84S
WINONA         CLOUDY    34  32  93 CALM      29.87S
AUSTIN         CLOUDY    30  27  86 CALM      29.84S
PRESTON        CLOUDY    31  27  86 W5        29.84F WCI  26
$$
ABBREVIATIONS USED IN REMARKS
   TC - TEMPERATURES IN CELSIUS
  WCI - WIND CHILL INDEX
   HX - HEAT INDEX
  VSB - VISIBILITY
$$




USA.gov is the U.S. government's official web portal to all federal, state and local government web resources and services.